GFSMW_con_lsi_132.txt.gz
Lid_Strength_Index
3 2 2 2 2 2 2 2 2 1 1 1 2 2 2 1 1 0 -0 -0 -1 -0 -0 0 0 -0 1 1 1 1 2 1 2 2 2 1 2 1 1 0 0 0 -0
3 2 2 2 3 4 3 3 2 1 1 1 1 1 1 1 1 0 -0 -0 -0 -0 -0 0 0 0 2 1 1 1 2 1 1 3 3 5 3 2 1 1 1 1 0
4 3 3 2 3 4 3 3 2 2 1 1 1 1 1 1 1 1 1 0 -0 -0 -0 -0 -0 -0 -0 1 1 1 1 3 2 1 3 6 6 4 2 1 1 1 1
3 3 3 3 2 2 2 2 2 1 1 1 1 2 2 3 2 1 1 0 -0 -0 -0 -0 -0 -0 0 1 1 0 1 1 3 2 1 2 2 5 6 2 2 1 1
3 4 3 2 2 2 2 2 2 1 1 1 1 2 2 2 1 1 2 1 1 -0 -0 -1 -0 -0 -0 0 0 0 1 1 2 2 3 2 2 2 4 6 4 2 2
3 3 2 2 2 2 2 2 2 2 1 1 1 1 2 2 2 2 2 1 1 1 0 1 0 -0 -0 0 0 -0 0 1 1 1 2 3 3 4 4 5 5 5 3
3 3 3 3 3 2 2 2 2 2 2 1 1 1 1 2 2 2 2 2 1 1 1 0 0 -0 -0 1 1 0 0 1 1 1 2 2 2 2 2 3 4 4 3
3 3 3 3 2 3 3 3 2 3 2 2 2 2 1 2 1 1 1 1 1 1 0 0 0 0 0 1 0 0 1 0 1 1 1 1 1 1 1 3 3 5 4
3 3 3 3 4 3 3 3 3 2 2 2 1 1 1 2 1 1 1 1 0 0 0 0 1 1 1 1 0 1 1 0 0 1 1 1 1 1 1 1 2 3 6
4 3 4 4 4 3 3 2 2 2 2 2 1 1 1 1 1 1 1 1 0 0 1 1 1 2 2 1 1 1 0 1 1 1 1 1 1 1 1 1 2 2 3
5 5 5 4 3 3 3 2 2 2 2 2 1 1 1 1 1 1 1 1 0 0 1 1 1 2 2 0 0 1 1 1 1 1 1 1 1 2 1 2 2 2 2
5 5 4 4 4 3 3 3 2 2 2 1 1 1 1 1 1 1 1 0 1 0 0 1 1 1 2 2 2 1 1 2 2 2 2 2 2 2 2 2 2 2 3
6 5 5 4 4 4 3 3 2 2 2 2 1 1 1 1 1 1 0 0 1 1 1 1 2 2 1 1 1 2 3 3 3 3 3 3 3 3 2 2 3 3 3
6 5 5 4 4 3 3 3 3 2 1 1 1 2 1 1 1 1 0 0 0 1 1 1 2 3 6 6 5 5 5 5 4 3 3 3 3 3 3 3 4 4 4
6 5 5 5 4 4 4 3 2 2 1 2 2 2 1 1 1 1 1 0 1 2 2 2 3 5 8 9 9 7 7 6 6 4 3 2 2 3 4 5 5 5 6
6 5 5 4 5 4 4 3 3 2 2 2 2 2 2 2 2 2 2 2 3 3 3 4 5 7 9 10 10 9 8 6 5 4 3 3 2 4 5 5 5 5 7
6 6 5 5 5 4 4 4 4 3 3 4 4 3 3 3 3 3 4 4 4 4 4 5 6 9 10 11 11 10 8 6 4 4 4 4 4 7 7 6 6 5 4
7 7 6 6 5 4 5 5 4 5 5 5 5 4 4 4 4 5 5 5 4 5 5 6 7 8 11 11 11 10 6 5 5 5 5 5 5 8 9 8 6 4 5
7 7 6 6 6 6 5 5 6 6 6 6 5 5 5 5 6 6 6 6 6 6 6 5 6 7 10 11 10 10 7 7 7 7 7 8 8 9 9 9 8 7 8
7 7 7 6 6 6 6 7 7 6 6 6 6 5 5 5 6 6 6 5 5 5 5 6 5 7 8 11 11 10 9 10 9 8 7 8 9 10 10 9 10 10 10
6 6 6 6 7 6 6 7 7 7 7 7 6 6 6 6 5 5 5 4 4 5 5 6 5 6 8 11 11 11 11 12 11 9 9 8 9 10 11 11 10 10 10
8 7 7 7 6 6 6 7 7 6 6 6 6 5 5 6 5 5 5 6 6 3 4 4 5 6 9 10 11 11 11 10 12 11 10 9 10 11 11 11 10 11 11
8 7 8 7 7 7 6 7 7 7 5 5 5 5 5 5 5 7 9 9 8 8 8 8 8 8 10 11 11 10 10 9 10 10 10 10 11 11 10 10 11 10 10
8 7 7 8 8 8 7 7 5 5 5 5 5 5 6 6 6 7 9 10 11 10 11 11 11 11 12 13 12 12 11 10 10 10 10 9 10 11 10 9 9 8 9
9 8 9 9 9 6 6 5 5 5 5 4 4 5 5 5 7 9 9 11 13 13 13 12 12 13 14 14 13 13 12 11 11 11 8 10 10 9 9 9 9 9 9
8 9 9 7 7 6 6 5 4 4 4 5 5 5 5 5 7 9 12 12 12 13 13 13 12 11 12 12 12 12 12 12 11 9 9 10 10 10 10 10 10 10 9

GFSMW_con_lsi_135.txt.gz
Lid_Strength_Index
7 6 3 3 3 3 4 3 3 4 3 2 2 2 2 1 1 0 0 1 0 1 1 2 2 2 3 3 3 4 4 4 5 5 5 4 3 2 1 1 1 0 -0
7 6 4 3 5 5 4 3 4 4 2 2 1 1 2 2 1 0 1 0 1 2 2 2 2 2 3 4 3 4 4 3 3 3 4 5 4 2 1 1 1 1 0
7 7 5 4 5 5 3 3 3 1 1 2 1 2 1 1 2 1 1 1 1 1 2 2 2 2 2 3 3 2 3 3 2 2 4 6 7 4 3 2 1 1 1
6 6 5 4 5 5 6 5 4 2 1 1 1 2 3 3 2 2 2 2 1 1 0 1 1 0 1 2 2 2 2 3 4 3 3 3 2 6 6 3 3 3 4
6 6 5 4 3 4 6 4 2 2 1 1 1 2 2 2 2 3 4 3 2 1 1 1 1 1 0 1 2 2 2 2 3 5 5 5 5 5 6 7 5 3 4
6 5 5 3 3 5 4 3 4 2 1 1 1 2 2 2 3 4 4 4 3 3 2 1 1 2 2 1 2 2 3 4 4 4 5 5 6 6 7 7 5 5 3
7 6 4 4 4 4 4 3 3 2 2 2 2 2 2 3 4 4 4 4 4 3 3 3 3 3 3 3 3 3 4 4 4 5 5 5 5 4 4 5 4 6 3
6 6 4 4 4 4 3 3 3 3 3 3 2 2 4 4 4 4 4 3 3 3 2 2 2 2 2 2 3 3 3 3 4 4 4 3 3 3 3 4 4 5 6
7 7 4 4 4 4 3 3 3 3 3 3 3 3 3 3 4 5 3 3 3 3 3 3 3 2 2 3 4 3 4 4 4 3 3 2 3 3 3 3 3 5 7
7 5 5 5 4 3 3 3 3 3 3 3 3 3 4 4 4 4 3 3 3 3 3 3 3 3 2 3 3 4 3 3 3 2 3 3 4 4 4 4 3 4 5
7 6 5 4 4 4 4 4 3 3 4 4 4 4 5 4 5 5 4 3 3 3 3 3 3 3 3 4 4 4 4 5 4 3 4 4 4 4 4 3 3 3 3
6 5 5 4 4 4 4 4 4 4 3 4 5 5 5 4 4 4 3 3 3 3 3 4 4 4 4 5 5 6 6 6 5 4 4 4 3 4 4 3 3 4 4
6 6 5 5 4 4 3 3 4 4 3 4 5 4 4 4 3 3 3 3 4 4 3 4 6 6 7 7 7 7 7 8 7 6 6 5 4 5 4 4 4 4 4
6 6 5 5 4 4 3 3 4 3 4 4 5 4 3 3 3 3 3 3 3 4 4 7 8 9 9 9 9 9 9 8 8 7 6 5 4 5 5 5 6 6 7
7 6 6 5 4 4 4 4 3 4 3 4 3 4 3 3 3 3 4 4 4 4 5 8 9 10 10 11 11 11 11 10 9 8 6 4 4 4 5 6 7 8 8
6 6 5 5 5 5 4 4 4 3 4 4 5 4 4 4 5 5 5 5 5 6 6 8 10 11 11 11 10 10 12 10 8 7 6 5 6 6 7 6 6 6 7
6 6 6 6 6 5 4 4 5 5 6 5 5 4 5 6 6 5 5 6 6 6 7 9 12 13 13 12 11 10 11 9 7 6 6 5 6 8 9 8 7 6 5
8 7 7 7 7 6 7 6 6 7 6 6 5 5 6 7 7 6 7 7 6 7 8 9 11 13 12 11 11 9 10 9 9 8 8 8 9 9 9 9 8 7 7
9 9 8 8 7 7 7 8 8 7 6 6 7 7 7 7 7 8 8 7 7 8 8 8 9 12 13 10 10 11 11 10 10 8 8 8 9 9 9 10 9 9 8
8 9 8 8 8 8 8 8 8 8 8 8 8 7 7 7 8 9 9 8 9 9 8 8 9 10 13 10 10 11 12 12 12 10 8 8 8 9 10 10 10 10 10
8 8 8 9 9 9 9 9 9 9 8 7 7 7 8 8 8 8 8 8 8 8 8 8 9 11 12 12 10 10 13 11 12 11 10 9 9 10 10 10 11 12 10
9 9 9 9 9 9 9 9 9 8 8 8 8 8 9 9 11 12 12 11 10 10 10 9 9 12 13 11 11 11 11 11 12 11 10 10 10 10 10 10 11 11 10
9 8 9 9 8 8 8 8 8 8 8 8 9 9 10 11 11 12 13 13 13 13 12 12 14 14 14 15 12 12 12 11 12 12 10 10 10 10 10 10 10 11 11
9 9 9 9 9 8 8 8 7 7 8 8 9 9 9 11 12 12 13 14 15 15 14 14 16 16 15 16 15 14 14 12 12 11 11 10 10 10 10 10 10 10 10
9 9 9 9 9 8 8 8 8 7 8 8 8 9 10 12 13 13 14 15 15 15 16 15 16 16 16 15 13 13 14 13 12 11 11 11 12 11 11 10 10 11 11
9 9 10 9 9 8 8 7 6 7 8 9 8 8 11 11 12 14 15 12 12 12 12 12 13 14 12 11 11 11 11 11 11 12 12 12 12 12 12 12 11 11 11

GFSMW_con_lsi_138.txt.gz
Lid_Strength_Index
8 4 3 3 2 3 3 3 3 1 1 2 2 2 2 1 1 1 0 0 1 2 3 3 3 4 4 4 4 4 4 5 6 6 5 4 3 3 3 3 0 0 -0
5 5 4 3 3 3 3 2 2 2 2 2 2 1 1 1 1 1 1 2 2 2 3 3 3 4 4 4 4 4 5 4 4 3 4 6 4 3 2 2 1 2 0
6 5 5 4 3 4 3 2 2 2 4 4 2 2 1 1 2 2 2 2 2 2 3 3 4 4 4 4 4 3 3 3 3 4 4 6 7 5 4 3 3 4 4
7 5 5 4 4 3 2 3 4 4 5 5 3 2 3 3 2 2 2 3 2 3 3 2 3 3 2 2 3 3 3 3 4 4 3 4 4 6 7 4 5 5 5
7 6 5 4 3 3 4 3 3 2 3 4 2 2 2 2 2 3 4 4 3 2 2 2 2 2 3 3 1 3 3 3 4 5 6 6 6 7 8 9 7 5 4
7 5 4 4 3 3 4 4 4 3 2 1 2 2 2 2 4 5 5 5 4 3 3 2 1 1 2 2 3 3 3 4 5 5 6 6 7 7 7 8 7 6 4
7 5 5 5 4 5 7 5 3 3 2 2 2 2 2 3 4 5 5 4 5 5 3 2 3 3 4 4 4 4 4 5 5 6 5 6 6 6 6 6 6 7 6
7 4 5 5 4 6 6 5 3 3 2 2 2 3 3 4 4 4 5 5 5 4 3 3 3 4 4 4 3 3 3 4 5 5 5 5 5 4 4 5 6 6 7
7 5 5 4 4 5 5 3 3 3 2 3 3 4 5 5 5 5 5 4 4 4 4 3 3 3 3 3 4 4 4 4 5 5 5 5 4 4 4 4 4 5 8
7 5 5 4 4 5 3 3 2 2 3 3 3 4 5 5 5 5 6 5 5 4 4 4 3 3 3 3 4 5 5 6 5 5 6 6 6 5 5 5 5 4 5
5 5 5 4 4 3 3 3 3 4 4 4 4 5 5 5 5 5 5 6 5 4 4 3 4 5 5 5 6 6 6 7 7 6 6 6 6 6 6 5 4 4 4
6 5 5 4 4 4 3 5 5 5 5 6 6 6 7 6 6 7 6 6 5 4 4 5 6 6 7 7 8 8 8 8 8 8 8 7 5 6 6 5 5 5 5
6 6 5 5 4 4 5 6 5 6 6 6 7 7 6 6 7 7 6 5 5 6 7 7 8 8 9 9 9 9 9 9 9 9 8 8 6 8 8 7 6 6 7
6 6 6 5 4 5 6 6 6 6 6 6 6 6 6 6 7 6 5 5 6 8 9 9 9 9 10 10 10 10 10 10 9 8 8 6 7 8 8 7 8 8 9
7 6 6 5 6 6 6 5 5 5 5 5 6 6 7 7 6 6 5 5 7 8 9 10 10 11 11 10 10 11 11 11 10 8 7 6 6 7 7 8 8 8 8
7 6 6 6 7 7 6 6 5 5 5 6 6 7 6 6 6 6 6 6 7 9 10 11 11 13 12 11 10 10 12 10 9 8 7 6 8 8 8 7 7 6 6
6 6 7 7 6 6 6 6 5 5 5 7 7 6 7 6 6 6 7 7 8 10 11 12 13 14 13 11 11 10 11 11 10 9 8 8 8 9 9 8 7 7 6
7 7 7 7 6 6 6 5 6 6 7 6 8 7 6 7 7 7 8 8 9 10 11 12 14 14 13 11 11 11 12 12 10 8 8 8 9 9 9 10 9 9 8
8 8 7 7 8 7 7 6 7 7 8 8 7 7 7 8 8 9 9 9 9 10 10 12 14 15 15 11 11 12 13 12 11 9 8 8 8 9 9 9 10 10 9
9 10 9 8 8 8 7 8 8 9 8 8 8 8 9 9 9 9 9 10 10 10 9 11 13 12 14 11 11 11 13 13 13 11 10 9 9 9 9 11 11 12 11
9 8 8 9 9 8 8 10 9 9 8 8 9 8 9 11 12 13 13 10 10 10 10 12 12 13 13 14 11 11 13 13 13 13 11 10 9 10 10 10 11 11 10
10 9 9 10 9 9 9 9 9 9 9 8 11 12 13 13 13 14 13 13 12 10 10 12 14 15 15 12 12 11 11 11 14 14 13 12 10 10 10 11 11 11 11
9 9 9 9 9 8 9 10 10 9 9 11 13 14 14 15 14 15 15 14 13 14 15 15 16 16 15 15 12 12 11 11 13 12 11 11 11 11 11 10 10 11 12
9 9 9 9 9 9 9 9 9 10 11 12 13 14 15 15 15 15 15 15 15 16 15 16 17 16 16 16 14 14 14 12 12 11 12 10 10 10 10 10 11 11 13
10 9 9 9 9 8 9 8 8 10 11 12 12 13 14 15 15 15 15 15 15 15 16 16 16 16 16 15 12 12 13 13 12 12 13 13 14 13 13 14 13 12 13
10 10 9 9 9 9 9 9 9 9 10 12 12 13 13 14 15 15 15 12 12 12 12 12 14 15 13 11 11 10 11 10 11 13 14 14 14 13 13 14 14 14 14

GFSMW_con_lsi_141.txt.gz
Lid_Strength_Index
8 4 3 3 2 3 3 3 2 2 1 2 2 2 2 1 1 1 1 1 1 2 3 4 4 4 4 5 5 5 5 6 6 6 5 3 3 3 2 2 2 2 2
5 5 4 3 3 3 3 3 3 2 1 1 1 1 1 1 1 1 1 1 1 2 3 4 4 5 5 5 5 5 5 5 5 4 5 5 4 3 3 4 4 5 4
6 5 4 4 3 3 3 3 3 2 2 1 2 1 1 2 2 2 2 2 2 2 3 4 4 4 5 5 5 5 5 4 3 4 4 6 7 5 4 4 5 5 6
5 5 5 4 4 3 3 2 3 2 1 2 2 2 3 3 3 2 2 3 3 3 3 4 4 4 5 5 4 3 3 3 4 4 4 5 4 7 7 6 6 5 5
5 6 5 4 3 3 2 2 3 2 1 2 2 2 2 2 2 2 3 4 4 3 3 4 3 4 4 4 2 3 4 4 4 5 6 7 7 7 8 9 8 6 5
6 5 4 4 4 3 2 3 3 2 4 4 4 2 2 2 2 3 4 4 4 4 4 3 3 3 3 2 3 4 4 5 5 6 6 6 7 8 8 9 8 6 5
8 5 5 5 4 4 3 4 4 3 4 5 3 2 2 2 3 4 4 4 5 5 4 3 3 3 3 4 4 4 5 5 5 6 5 6 6 6 7 8 7 6 6
8 5 5 5 4 4 4 4 3 3 3 5 3 2 2 3 3 4 4 5 5 4 4 3 3 4 4 5 5 4 4 5 4 5 5 5 5 6 7 7 8 8 8
9 6 5 4 4 4 4 4 4 3 2 2 2 3 3 3 5 5 4 5 5 4 4 3 4 5 4 4 5 5 5 5 5 6 6 6 6 6 6 6 6 8 9
9 8 5 5 4 3 3 4 4 3 2 2 2 4 4 4 4 4 5 5 6 6 5 5 5 5 5 5 6 6 6 7 7 6 7 7 7 7 7 7 6 7 6
9 8 5 4 4 3 3 4 3 3 3 4 4 4 4 4 5 5 6 6 7 6 6 6 6 7 7 7 8 8 8 8 8 8 8 7 7 7 7 7 7 6 6
9 8 5 4 4 4 3 3 3 3 3 4 4 5 5 5 6 6 7 7 8 8 8 7 8 8 9 9 9 9 9 9 9 9 8 8 6 8 8 8 8 8 7
6 6 5 5 4 4 4 3 3 3 4 5 5 6 6 7 7 7 8 10 10 10 9 9 9 9 9 10 10 10 9 9 9 8 8 8 8 10 10 9 9 9 8
7 6 5 5 4 4 4 4 5 5 5 5 6 7 7 7 8 8 10 10 11 10 10 10 10 10 10 10 10 10 10 10 9 8 7 7 8 8 9 8 8 8 8
7 6 6 5 5 5 5 5 6 6 6 7 8 8 8 8 8 10 10 11 10 10 10 11 11 12 11 10 10 11 11 10 10 9 8 7 6 6 7 8 8 8 7
7 6 6 5 5 7 6 6 7 7 8 9 8 8 8 8 9 9 10 10 10 11 11 12 13 13 11 10 9 10 12 11 11 10 9 7 8 8 8 7 7 7 9
7 6 6 6 7 7 6 7 8 8 8 8 8 8 8 9 9 9 9 10 11 12 13 14 14 14 13 11 11 11 13 12 11 10 9 8 8 8 9 8 8 8 6
6 6 7 6 7 7 8 8 8 9 8 8 9 8 9 8 8 8 10 10 12 13 14 15 15 15 12 10 10 10 13 12 11 10 8 8 9 9 10 9 10 10 9
6 6 7 7 8 9 9 9 8 8 9 9 9 8 8 8 8 9 10 10 11 13 14 15 15 15 15 11 10 12 13 13 13 11 10 9 10 10 9 11 11 12 11
8 8 8 9 9 8 8 9 9 9 10 9 9 9 8 8 9 10 10 10 11 13 14 14 15 13 15 12 11 12 14 14 13 13 12 9 10 11 11 13 13 14 13
9 9 9 10 9 8 8 9 9 10 9 9 10 11 12 12 11 10 9 10 12 13 14 15 15 16 14 14 11 11 14 14 14 13 13 12 10 11 11 11 13 13 12
10 10 10 9 8 8 9 10 10 10 11 13 14 14 14 12 12 12 12 11 13 14 16 16 16 16 16 11 11 10 10 11 14 14 13 12 11 11 11 12 11 11 13
10 10 10 10 9 9 9 10 11 13 14 15 15 15 15 15 14 14 14 15 16 16 16 17 17 16 15 15 11 11 10 10 13 13 11 11 11 12 13 11 12 12 14
10 9 10 10 10 9 10 11 13 14 15 16 16 16 16 16 16 16 16 16 16 17 17 17 16 16 15 15 14 14 14 11 13 12 12 11 12 11 12 13 14 15 15
10 10 10 10 10 10 11 12 12 13 15 15 16 16 16 16 16 16 15 15 16 16 17 17 16 16 15 14 12 12 14 13 12 13 14 13 14 15 16 15 15 15 15
10 10 10 10 10 10 10 11 11 13 14 15 16 16 16 16 15 15 16 12 12 12 12 12 13 14 12 10 11 11 11 11 11 13 15 14 14 15 16 16 17 17 16

GFSMW_con_lsi_144.txt.gz
Lid_Strength_Index
10 4 3 3 3 4 3 3 3 3 1 1 2 2 2 1 1 -0 1 0 -0 0 1 2 3 3 3 4 4 4 4 5 4 4 2 1 1 1 0 1 2 2 2
6 5 4 3 4 4 4 4 3 3 1 1 1 1 1 1 0 0 1 0 1 1 2 3 4 4 4 4 4 4 4 4 4 3 3 5 3 1 1 2 3 3 3
6 5 5 4 3 4 4 4 4 2 2 1 1 1 1 1 1 1 1 1 1 1 2 3 4 4 4 5 4 4 4 4 2 2 3 5 6 4 2 2 4 3 3
5 5 5 4 4 3 3 4 3 2 2 1 1 2 3 3 2 1 1 2 2 2 2 3 4 4 4 4 3 1 1 1 3 2 3 3 3 5 5 4 5 3 3
6 6 5 4 3 3 3 3 4 3 2 1 1 2 2 2 1 2 3 3 2 2 3 4 4 4 3 4 1 2 2 2 2 3 4 5 5 5 5 7 6 4 4
7 5 4 4 4 3 2 2 4 3 2 1 1 2 2 2 3 3 3 3 3 4 4 4 4 3 2 2 2 3 3 3 4 4 4 4 5 5 5 6 5 6 3
10 6 5 5 4 4 3 3 4 5 3 2 2 2 2 2 3 3 3 3 4 4 4 3 3 2 3 3 3 3 3 4 4 4 3 3 3 3 4 4 5 6 4
10 5 5 5 4 4 3 3 3 5 3 2 2 2 2 2 3 2 3 3 3 4 4 3 3 4 3 3 3 3 3 3 4 3 4 3 4 4 4 4 5 6 6
10 10 5 4 4 4 3 3 3 4 4 2 2 3 3 4 3 3 3 3 3 4 4 4 4 4 5 4 4 5 5 4 4 5 4 4 4 4 5 5 5 6 8
8 10 5 4 4 3 3 3 3 3 4 2 2 4 5 4 3 3 3 4 4 5 5 6 6 6 6 6 6 6 6 6 7 6 6 5 5 5 5 5 5 5 6
7 8 8 4 4 3 3 4 3 2 3 2 3 4 4 3 3 3 4 5 6 7 8 8 8 8 7 7 7 7 7 7 7 7 6 6 5 6 6 6 6 6 6
7 7 8 5 4 4 3 3 3 3 3 3 4 3 4 4 5 6 6 7 9 9 9 9 9 8 8 8 8 8 8 8 7 7 6 6 6 7 7 8 7 7 6
6 8 5 5 5 4 4 3 3 4 4 4 4 4 5 6 7 9 9 9 11 11 10 10 10 9 9 9 9 8 8 7 7 6 6 7 7 8 8 8 8 7 6
6 6 6 5 4 4 3 3 4 4 4 5 5 6 7 8 9 10 10 11 11 12 11 11 10 9 9 9 9 8 8 8 8 7 6 7 8 8 8 7 7 7 7
7 6 6 5 4 4 4 3 4 4 5 5 7 8 9 10 10 11 12 11 12 12 12 11 11 10 10 9 10 10 10 9 9 8 6 6 7 7 7 7 7 8 8
7 6 5 5 5 4 4 5 5 6 6 8 9 9 10 11 12 12 13 13 12 13 12 12 12 12 12 10 10 11 10 9 8 8 8 7 7 8 8 7 7 8 9
6 6 6 5 5 5 5 7 7 7 7 9 9 9 10 11 12 12 12 13 14 14 13 13 13 13 12 11 11 11 10 9 9 8 8 8 8 8 8 8 8 10 10
6 6 6 6 5 6 7 7 7 8 9 9 9 9 10 11 11 13 13 14 14 14 15 14 14 13 13 12 11 11 11 11 10 9 9 9 9 9 9 10 11 11 12
5 7 6 7 7 7 8 8 9 8 8 9 9 9 10 11 12 12 13 13 14 15 15 14 15 15 14 12 11 11 11 11 11 10 8 9 10 10 10 11 13 13 13
7 8 8 8 8 8 8 9 9 9 9 9 9 9 9 10 11 11 12 13 14 15 14 15 15 13 14 11 10 12 11 11 11 10 10 10 10 11 11 12 13 14 13
8 8 9 9 9 9 9 10 11 11 10 10 10 10 10 10 10 11 12 14 14 15 15 16 15 15 12 11 10 10 11 12 11 11 12 11 11 12 11 12 13 13 12
8 9 10 10 11 10 10 12 13 11 11 12 12 11 10 10 10 12 13 14 15 16 16 16 15 14 13 10 10 10 10 11 11 12 12 12 12 12 12 12 12 13 13
9 10 11 11 11 11 11 13 14 13 13 14 14 14 13 12 11 13 15 16 15 16 16 15 14 13 13 12 11 10 10 9 10 10 11 11 12 12 13 13 13 13 13
10 10 11 13 13 13 13 14 14 14 14 15 15 14 14 14 14 15 15 16 16 15 14 14 14 13 12 12 12 12 11 11 11 11 11 12 12 13 13 13 14 14 14
10 12 13 14 14 14 14 14 14 15 15 15 15 15 15 15 16 16 16 16 15 14 14 14 13 13 12 12 11 11 11 11 11 12 12 13 14 14 14 14 14 15 14
11 12 12 13 13 14 15 15 15 15 16 16 15 15 15 15 15 15 15 12 12 12 12 12 12 12 11 11 11 11 11 11 11 12 14 14 14 15 15 15 15 15 15

GFSMW_con_lsi_147.txt.gz
Lid_Strength_Index
4 2 2 2 2 2 2 1 1 1 1 1 1 1 2 1 0 -0 -1 -1 -1 -1 -1 -0 -0 -1 0 1 1 1 1 2 1 1 0 0 -0 -0 -0 -0 0 0 0
4 3 3 3 2 2 2 1 1 1 1 1 1 1 1 0 0 -0 -1 -1 -1 -1 -1 -1 -0 1 1 1 1 0 1 2 0 1 2 3 2 1 -0 -1 0 0 0
5 3 3 3 3 2 2 2 1 1 1 0 0 0 0 0 1 1 0 -0 -1 -1 -1 -1 1 1 1 2 1 1 1 2 1 0 2 3 4 3 1 0 -0 -0 0
5 3 4 4 3 3 2 1 1 1 1 0 1 1 2 2 1 1 0 -0 -1 -1 -0 1 2 3 2 2 1 0 -0 0 2 1 0 0 1 4 4 1 0 0 1
5 3 3 3 3 2 2 1 1 1 1 1 1 1 1 1 1 1 1 1 0 0 1 2 2 2 2 0 -0 -0 0 0 0 1 1 1 2 1 3 4 3 1 1
5 3 3 3 3 2 2 2 2 2 1 1 1 1 1 2 2 2 2 2 1 2 2 1 1 2 0 -0 -0 -0 -0 -0 1 1 1 2 2 2 2 3 3 3 2
6 4 3 3 3 3 2 2 2 2 2 1 1 1 1 1 2 2 2 2 2 2 2 2 2 1 -1 -1 -0 -0 0 0 0 0 0 -0 0 0 1 2 3 4 3
6 5 3 3 3 3 3 2 2 2 2 1 1 1 1 1 1 2 2 2 2 2 1 2 2 1 0 -0 -0 0 0 -0 0 0 0 1 1 1 2 3 4 5 4
5 5 3 3 3 3 3 2 2 2 2 1 1 1 1 2 3 3 2 2 3 4 4 3 3 2 1 1 1 1 1 1 1 2 2 2 2 2 2 3 3 5 7
5 4 5 3 3 2 2 2 2 2 2 1 1 2 3 3 3 3 2 2 3 5 5 5 4 3 3 3 2 3 3 2 3 3 3 3 3 3 3 3 3 4 6
6 5 3 2 2 2 2 2 2 2 2 2 3 3 3 3 2 2 2 2 5 6 6 6 5 5 5 3 4 4 3 4 3 3 3 4 3 4 4 4 4 5 4
5 5 3 3 3 3 3 3 2 2 2 3 3 3 3 2 3 3 4 5 7 6 7 7 7 7 6 5 4 4 4 4 4 4 5 6 5 4 4 4 4 4 4
4 4 4 3 3 3 3 3 3 2 3 4 4 5 4 4 5 5 6 7 7 7 8 7 6 7 5 5 4 4 4 4 4 5 6 5 5 5 5 5 5 5 5
4 4 4 4 3 3 3 3 3 3 4 4 5 6 6 6 6 6 8 8 7 8 8 7 7 6 6 5 5 5 5 5 5 6 5 5 5 6 6 6 5 5 6
5 5 4 4 4 4 3 3 3 4 4 6 7 8 9 8 9 10 10 10 9 9 9 9 8 7 7 7 6 6 5 6 6 5 5 5 6 7 7 6 6 7 8
5 5 5 4 4 4 4 3 4 5 6 8 9 9 10 10 11 11 12 11 10 10 10 9 9 9 9 10 9 6 6 6 6 6 6 6 7 7 7 8 8 9 9
5 6 5 4 4 4 4 5 6 7 8 9 9 10 10 11 11 12 12 12 11 10 10 10 9 9 9 11 10 9 7 7 7 6 7 8 7 7 7 7 8 9 10
5 5 5 4 4 4 5 6 7 8 9 9 9 9 11 11 11 11 12 12 11 11 11 10 10 10 11 11 12 10 8 8 7 7 7 7 8 9 9 9 9 9 9
5 5 5 5 6 6 6 7 9 9 9 10 10 10 10 10 11 13 13 12 12 12 11 11 10 10 10 12 12 9 8 8 8 8 9 8 9 11 11 9 10 10 9
5 6 6 6 7 7 7 9 10 10 10 9 9 9 9 11 12 13 12 12 11 11 11 11 10 10 10 12 12 9 8 8 9 9 9 11 11 11 12 10 10 11 11
7 7 8 8 8 7 8 10 10 10 9 9 9 9 10 11 12 12 12 11 11 11 11 11 10 10 10 11 11 10 8 9 9 10 11 11 12 12 12 12 11 12 11
8 9 10 9 9 9 10 10 10 9 8 8 9 10 10 10 12 12 12 11 11 11 11 11 11 11 10 10 10 11 10 9 9 10 10 11 12 12 12 12 13 12 10
9 10 10 11 11 10 10 10 10 8 9 9 9 10 10 11 11 12 12 12 11 11 12 12 12 11 9 9 10 10 10 10 10 10 11 12 12 12 11 12 12 11 11
10 11 12 13 13 11 10 10 10 10 10 10 10 10 11 11 12 12 12 12 12 12 12 12 11 10 9 9 9 8 8 10 9 10 10 11 11 11 11 11 11 11 11
12 12 14 14 13 12 12 11 10 10 10 10 10 11 11 12 12 12 12 12 11 12 12 10 10 10 10 10 10 10 9 10 11 9 10 11 11 11 11 11 11 11 11
13 13 13 13 13 13 12 12 11 10 10 11 10 11 12 12 12 12 13 14 13 13 12 11 10 10 10 11 11 11 12 12 11 10 11 11 11 11 11 12 11 11 12